TimeEDT,TemperatureF,Dew PointF,Humidity,Sea Level PressureIn,VisibilityMPH,Wind Direction,Wind SpeedMPH,Gust SpeedMPH,PrecipitationIn,Events,Conditions,WindDirDegrees,DateUTC
12:53 AM,73.9,57.9,57,29.78,10.0,NW,4.6,-,N/A,,Scattered Clouds,320,2013-05-16 04:53:00
1:53 AM,72.0,57.9,61,29.78,10.0,West,8.1,-,N/A,,Mostly Cloudy,260,2013-05-16 05:53:00
2:53 AM,70.0,59.0,68,29.78,10.0,WSW,8.1,-,0.00,Rain,Light Rain,240,2013-05-16 06:53:00
3:53 AM,66.0,60.1,81,29.79,10.0,West,9.2,-,0.04,Rain,Light Rain,260,2013-05-16 07:53:00
4:53 AM,63.0,61.0,93,29.82,4.0,WSW,10.4,-,0.08,Rain,Rain,250,2013-05-16 08:53:00
5:53 AM,63.0,60.1,90,29.81,9.0,SSW,5.8,-,0.09,,Overcast,210,2013-05-16 09:53:00
6:53 AM,62.1,60.1,93,29.84,6.0,SSW,9.2,-,N/A,,Mostly Cloudy,200,2013-05-16 10:53:00
7:53 AM,63.0,61.0,93,29.86,8.0,SSW,9.2,-,N/A,,Mostly Cloudy,210,2013-05-16 11:53:00
8:53 AM,66.0,62.1,87,29.87,8.0,SW,9.2,-,N/A,,Partly Cloudy,230,2013-05-16 12:53:00
9:10 AM,66.2,62.6,88,29.88,8.0,SW,10.4,-,N/A,,Scattered Clouds,230,2013-05-16 13:10:00
9:53 AM,66.9,62.1,84,29.88,9.0,WSW,10.4,-,N/A,,Mostly Cloudy,250,2013-05-16 13:53:00
10:53 AM,70.0,61.0,73,29.88,10.0,West,8.1,-,N/A,,Mostly Cloudy,270,2013-05-16 14:53:00
11:20 AM,71.6,60.8,69,29.91,10.0,West,8.1,-,N/A,,Scattered Clouds,270,2013-05-16 15:20:00
11:53 AM,72.0,57.9,61,29.90,10.0,Variable,5.8,-,N/A,,Partly Cloudy,0,2013-05-16 15:53:00
12:53 PM,73.9,54.0,50,29.89,10.0,WSW,5.8,-,N/A,,Clear,250,2013-05-16 16:53:00
1:53 PM,73.9,51.1,45,29.89,10.0,SW,8.1,-,N/A,,Clear,220,2013-05-16 17:53:00
2:53 PM,75.0,48.0,38,29.90,10.0,West,3.5,-,N/A,,Clear,280,2013-05-16 18:53:00
3:53 PM,75.9,48.0,37,29.89,10.0,WSW,6.9,-,N/A,,Clear,250,2013-05-16 19:53:00
4:53 PM,77.0,46.9,34,29.90,10.0,West,11.5,-,N/A,,Clear,260,2013-05-16 20:53:00
5:53 PM,77.0,46.9,34,29.90,10.0,West,12.7,-,N/A,,Clear,260,2013-05-16 21:53:00
6:53 PM,75.9,46.9,36,29.91,10.0,WSW,11.5,18.4,N/A,,Clear,240,2013-05-16 22:53:00
7:53 PM,73.9,46.0,37,29.92,10.0,WSW,11.5,-,N/A,,Partly Cloudy,250,2013-05-16 23:53:00
8:53 PM,72.0,46.0,40,29.94,10.0,WSW,8.1,-,N/A,,Clear,240,2013-05-17 00:53:00
9:53 PM,68.0,57.0,68,29.96,10.0,SW,10.4,-,N/A,,Clear,230,2013-05-17 01:53:00
10:53 PM,66.9,57.9,73,29.97,10.0,West,8.1,-,N/A,,Clear,260,2013-05-17 02:53:00
11:53 PM,62.1,57.9,86,29.99,10.0,North,3.5,-,N/A,,Clear,360,2013-05-17 03:53:00